STARLINK-1587, 46157

Orbit data source: Space-Track

STARLINK-1587, 46157 is a payload satellite owned by SpaceX/Seattle (US) in LEO that was launched on Tue, 18 Aug 2020 UTC via an FALCON 9 launch vehicle from the Air Force Eastern Test Range (AFETR). Payload-class satellites include a variety of spacecraft equipped with specific instruments for various scientific and technological missions. These include communications satellites like Starlink; space stations such as the ISS; scientific satellites like the Hubble; Earth observation satellites from companies like Planet Labs, Umbra, and HawkEye 360; GPS; miniature CubeSats for education and research; and military/defense satellites.

Loading next visibility...
Identifier
46157, 2020-057AS
Orbit
LEO
Country
Flag of USUS
Related business
Manufacturer
SpaceX/Seattle
Mission
Partially operational Commercial Communications
Bus & Motor
STARLINK, Unknown motor
Mass
260 kg wet, ~248 kg dry
Launch date (UTC)
2020-08-18 (5 years ago)
Launch vehicle
FALCON 9
Launch site
Air Force Eastern Test Range (AFETR)
Object type
Payload
Rocket body
Debris
Shape & HBR
Box + 1 Pan, 10.1 m
Radar Cross Section
13.562 m², Large (>1 m²)

Expand to show TLE details & history
Last TLE update: 4 days ago

TLE from 4 days ago
0 STARLINK-1587
1 46157U 20057AS  25285.29423053  .00149822  00000-0  40463-2 0  9992
2 46157  53.0525 218.4372 0004947 125.3622 234.7843 15.36711018284320
Epoch: 2025-10-12T07:03Z
TLE epoch observation values (Epoch: 2025-10-12T07:03:41.517Z)
Latitude
-0.00004°
Longitude
91.40075°
Altitude
458.684 km
Speed
7.638 km/s
True Right ascension
14h 33m 44s
True Declination
0° 00' 00"
Sunlit
Object was in daylight at epoch
Visualization orbit readout
Latitude
Unknown
Longitude
Unknown
Altitude
Unknown
Speed
Unknown
Apparent Right ascension
Unknown
Apparent Declination
Unknown
Sunlit
N/A
Visualization observer readout
Local Sidereal Time
11:29:06
Azimuth
Unknown
Elevation
Unknown
Doppler factor
Unknown
Orbital elements
Apogee altitude
459.498 km
Perigee altitude
452.737 km
Semi-major axis
6,834.255 km
Eccentricity
0.00049
Inclination
53.0525°
RAAN
218.4372°
Arg. of periapsis
125.3622°
True anomaly
234.738°
Mean anomaly
234.7843°
Eccentric anomaly
234.76115°
Mean motion
3.84155 °/min
Orbital period
93.71 mins
BSTAR
0.0040463
Loading maneuver chart data...
Computing Atmospheric mass density...

Documentation

Showing up to 5 results
|